FW8256 Weather Reports


Display with metric or nautical units.
time (UTC)temp
F
wind
direction
speed
MPH
gust
MPH
rain 1hr
in
rain 24hr
in
rain mn
in
humidity
%
barometer
mb
20260901000016 97 160 3.0 12.0 0.00 0.00 0.00 33 1009.8
20260831234516 98 116 5.0 9.0 0.00 0.00 0.00 32 1009.8
20260831233014 98 153 5.0 11.0 0.00 0.00 0.00 32 1009.8
20260831231513 99 148 4.0 9.0 0.00 0.00 0.00 32 1009.8
20260831230015 99 162 4.0 9.0 0.00 0.00 0.00 32 1009.8
20260831224512 100 180 5.0 12.0 0.00 0.00 0.00 32 1009.7
20260831223012 100 185 4.0 11.0 0.00 0.00 0.00 31 1009.8
20260831221521 101 169 4.0 8.0 0.00 0.00 0.00 31 1009.9
20260831220010 100 225 3.0 6.0 0.00 0.00 0.00 32 1009.8
20260831214524 100 142 3.0 8.0 0.00 0.00 0.00 32 1010.0
20260831213007 100 190 7.0 15.0 0.00 0.00 0.00 32 1010.2
20260831211506 99 207 4.0 11.0 0.00 0.00 0.00 33 1010.3
20260831210006 101 151 4.0 10.0 0.00 0.00 0.00 32 1010.4
20260831204506 101 169 3.0 9.0 0.00 0.00 0.00 32 1010.5
20260831203005 101 167 4.0 10.0 0.00 0.00 0.00 32 1010.7
20260831201508 102 153 3.0 7.0 0.00 0.00 0.00 31 1010.8
20260831200105 100 230 1.0 11.0 0.00 0.00 0.00 31 1010.9
20260831194559 100 163 3.0 7.0 0.00 0.00 0.00 32 1011.1
20260831193059 100 255 5.0 8.0 0.00 0.00 0.00 32 1011.3
20260831191556 100 264 4.0 9.0 0.00 0.00 0.00 33 1011.4
20260831190112 100 182 4.0 9.0 0.00 0.00 0.00 33 1011.5
20260831184556 99 153 4.0 10.0 0.00 0.00 0.00 33 1011.8
20260831183100 100 246 2.0 9.0 0.00 0.00 0.00 33 1011.9
20260831181553 99 204 3.0 10.0 0.00 0.00 0.00 35 1012.0
20260831180049 99 210 4.0 7.0 0.00 0.00 0.00 34 1012.1
20260831174548 98 154 3.0 10.0 0.00 0.00 0.00 37 1012.3
20260831173046 97 256 5.0 9.0 0.00 0.00 0.00 39 1012.5
20260831171543 97 261 3.0 10.0 0.00 0.00 0.00 41 1012.7
20260831170041 96 221 4.0 11.0 0.00 0.00 0.00 43 1012.9
20260831164537 95 244 4.0 12.0 0.00 0.00 0.00 44 1012.9
20260831163041 95 306 4.0 11.0 0.00 0.00 0.00 45 1012.9
20260831161532 94 269 6.0 11.0 0.00 0.00 0.00 45 1013.0
20260831160037 93 156 4.0 11.0 0.00 0.00 0.00 46 1013.1
20260831154523 93 147 2.0 10.0 0.00 0.00 0.00 48 1013.0
20260831153019 92 246 2.0 11.0 0.00 0.00 0.00 48 1013.1
20260831151521 91 238 3.0 11.0 0.00 0.00 0.00 50 1013.0
20260831150012 90 147 4.0 10.0 0.00 0.00 0.00 50 1013.1
20260831144519 89 201 4.0 11.0 0.00 0.00 0.00 51 1013.1
20260831143006 88 202 4.0 10.0 0.00 0.00 0.00 52 1013.1
20260831141501 87 202 3.0 10.0 0.00 0.00 0.00 54 1013.1
20260831140100 86 170 3.0 8.0 0.00 0.00 0.00 54 1013.2
20260831134603 84 190 2.0 7.0 0.00 0.00 0.00 55 1013.2
20260831133057 83 272 3.0 8.0 0.00 0.00 0.00 55 1013.1
20260831131559 82 181 1.0 5.0 0.00 0.00 0.00 57 1012.8
20260831130101 81 165 1.0 5.0 0.00 0.00 0.00 58 1012.7
20260831124555 79 360 1.0 4.0 0.00 0.00 0.00 59 1012.5
20260831123049 79 360 1.0 5.0 0.00 0.00 0.00 59 1012.3
20260831121550 78 360 1.0 5.0 0.00 0.00 0.00 59 1012.2
20260831120054 78 360 2.0 5.0 0.00 0.00 0.00 58 1011.9
20260831114543 78 360 1.0 5.0 0.00 0.00 0.00 58 1011.7
20260831113055 78 360 1.0 4.0 0.00 0.00 0.00 58 1011.7
20260831111539 78 360 0.0 4.0 0.00 0.00 0.00 58 1011.5
20260831110037 78 360 1.0 3.0 0.00 0.00 0.00 58 1011.2
20260831104533 79 360 1.0 5.0 0.00 0.00 0.00 57 1011.1
20260831103032 79 360 1.0 4.0 0.00 0.00 0.00 56 1011.2
20260831101529 79 360 1.0 4.0 0.00 0.00 0.00 56 1011.1
20260831100026 80 360 0.0 4.0 0.00 0.00 0.00 54 1011.1
20260831094523 81 360 1.0 5.0 0.00 0.00 0.00 53 1011.1
20260831093021 82 360 2.0 8.0 0.00 0.00 0.00 52 1010.9
20260831091518 82 360 1.0 6.0 0.00 0.00 0.00 52 1010.8
20260831090017 83 360 2.0 6.0 0.00 0.00 0.00 51 1010.6
20260831084515 83 360 2.0 8.0 0.00 0.00 0.00 51 1010.6
20260831083013 83 360 1.0 5.0 0.00 0.00 0.00 50 1010.6
20260831081518 84 360 1.0 6.0 0.00 0.00 0.00 49 1010.6
20260831080025 84 360 2.0 5.0 0.00 0.00 0.00 49 1010.5
20260831074508 85 360 2.0 8.0 0.00 0.00 0.00 48 1010.6
20260831073009 85 360 2.0 10.0 0.00 0.00 0.00 48 1010.4
20260831071506 85 360 1.0 5.0 0.00 0.00 0.00 48 1010.5
20260831070008 85 360 3.0 9.0 0.00 0.00 0.00 47 1010.4
20260831064506 85 360 2.0 9.0 0.00 0.00 0.00 47 1010.5
20260831063007 85 360 2.0 8.0 0.00 0.00 0.00 47 1010.5
20260831061502 85 360 2.0 9.0 0.00 0.00 0.00 47 1010.5
20260831060000 85 360 2.0 10.0 0.00 0.00 0.00 46 1010.3
20260831054558 86 360 3.0 9.0 0.00 0.00 0.00 46 1010.3
20260831053056 86 360 3.0 9.0 0.00 0.00 0.00 46 1010.2
20260831051600 87 360 2.0 12.0 0.00 0.00 0.00 45 1010.1
20260831050051 87 360 3.0 9.0 0.00 0.00 0.00 45 1010.1
20260831044556 87 360 2.0 10.0 0.00 0.00 0.00 44 1010.0
20260831043050 88 360 3.0 11.0 0.00 0.00 0.00 44 1009.9
20260831041551 89 360 4.0 11.0 0.00 0.00 0.00 43 1009.9
20260831040048 89 360 2.0 8.0 0.00 0.00 0.00 43 1009.9
20260831034550 89 360 3.0 8.0 0.00 0.00 0.00 43 1009.7
20260831033046 89 360 3.0 8.0 0.00 0.00 0.00 43 1009.8
20260831031545 89 360 3.0 9.0 0.00 0.00 0.00 44 1009.7
20260831030045 90 360 4.0 8.0 0.00 0.00 0.00 43 1009.4
20260831024544 91 360 3.0 8.0 0.00 0.00 0.00 42 1009.3
20260831023146 91 360 1.0 8.0 0.00 0.00 0.00 40 1009.0
20260831021542 92 360 2.0 6.0 0.00 0.00 0.00 40 1008.9
20260831020048 92 360 2.0 5.0 0.00 0.00 0.00 39 1008.5
20260831014541 93 360 2.0 5.0 0.00 0.00 0.00 37 1008.3
20260831013048 94 360 2.0 5.0 0.00 0.00 0.00 37 1008.2
20260831011545 95 360 2.0 5.0 0.00 0.00 0.00 35 1008.1
20260831010043 96 175 1.0 9.0 0.00 0.00 0.00 34 1008.1
20260831004539 97 171 3.0 10.0 0.00 0.00 0.00 33 1008.0
20260831003039 98 161 0.0 5.0 0.00 0.00 0.00 33 1007.9
20260831001538 99 165 2.0 7.0 0.00 0.00 0.00 32 1007.9